Time,TemperatureF,DewpointF,PressureIn,WindDirection,WindDirectionDegrees,WindSpeedMPH,WindSpeedGustMPH,Humidity,HourlyPrecipIn,Conditions,Clouds,dailyrainin,SoftwareType,DateUTC
2013-09-30 00:12:00,59.0,57.0,30.08,SE,135,4.0,4.0,92,0.00,,,0.00,,2013-09-30 07:12:00,
2013-09-30 00:21:00,58.0,56.0,30.08,South,180,3.0,6.0,92,0.00,,,0.00,,2013-09-30 07:21:00,
2013-09-30 00:42:00,58.0,56.0,30.08,SW,225,3.0,3.0,92,0.00,,,0.00,,2013-09-30 07:42:00,
2013-09-30 00:53:00,58.0,56.0,30.08,SSW,203,2.0,4.0,92,0.00,,,0.00,,2013-09-30 07:53:00,
2013-09-30 01:12:00,58.0,56.0,30.08,SW,225,2.0,2.0,92,0.00,,,0.00,,2013-09-30 08:12:00,
2013-09-30 01:22:00,58.0,56.0,30.08,SW,225,2.0,3.0,92,0.00,,,0.00,,2013-09-30 08:22:00,
2013-09-30 01:42:00,58.0,56.0,30.08,WSW,248,5.0,5.0,92,0.00,,,0.00,,2013-09-30 08:42:00,
2013-09-30 01:52:00,58.0,56.0,30.08,West,270,3.0,4.0,92,0.00,,,0.00,,2013-09-30 08:52:00,
2013-09-30 02:11:00,58.0,56.0,30.08,SW,225,2.0,3.0,92,0.00,,,0.00,,2013-09-30 09:11:00,
2013-09-30 02:22:00,58.0,56.0,30.05,SSW,203,4.0,4.0,92,0.00,,,0.00,,2013-09-30 09:22:00,
2013-09-30 02:53:00,58.0,56.0,30.05,South,180,2.0,2.0,92,0.00,,,0.00,,2013-09-30 09:53:00,
2013-09-30 03:13:00,58.0,56.0,30.05,SW,225,1.0,1.0,92,0.00,,,0.00,,2013-09-30 10:13:00,
2013-09-30 03:22:00,58.0,56.0,30.05,SW,225,6.0,6.0,92,0.00,,,0.00,,2013-09-30 10:22:00,
2013-09-30 03:53:00,58.0,56.0,30.05,West,270,3.0,3.0,93,0.00,,,0.00,,2013-09-30 10:53:00,
2013-09-30 04:12:00,58.0,56.0,30.05,SW,225,4.0,5.0,93,0.00,,,0.00,,2013-09-30 11:12:00,
2013-09-30 04:22:00,58.0,56.0,30.05,South,180,2.0,4.0,93,0.00,,,0.00,,2013-09-30 11:22:00,
2013-09-30 04:43:00,58.0,56.0,30.05,SSW,203,6.0,6.0,93,0.00,,,0.00,,2013-09-30 11:43:00,
2013-09-30 04:52:00,58.0,56.0,30.05,SW,225,1.0,1.0,93,0.00,,,0.00,,2013-09-30 11:52:00,
2013-09-30 05:12:00,58.0,56.0,30.05,SW,225,3.0,3.0,93,0.00,,,0.00,,2013-09-30 12:12:00,
2013-09-30 05:22:00,58.0,56.0,30.05,South,180,5.0,6.0,93,0.00,,,0.00,,2013-09-30 12:22:00,
2013-09-30 05:42:00,58.0,56.0,30.05,SSW,203,4.0,4.0,93,0.00,,,0.00,,2013-09-30 12:42:00,
2013-09-30 05:52:00,58.0,56.0,30.05,SSW,203,4.0,6.0,93,0.00,,,0.00,,2013-09-30 12:52:00,
2013-09-30 06:11:00,58.0,56.0,30.05,South,180,5.0,6.0,93,0.00,,,0.00,,2013-09-30 13:11:00,
2013-09-30 06:22:00,58.0,56.0,30.05,SW,225,3.0,4.0,93,0.00,,,0.00,,2013-09-30 13:22:00,
2013-09-30 06:42:00,58.0,56.0,30.05,SW,225,1.0,4.0,93,0.00,,,0.00,,2013-09-30 13:42:00,
2013-09-30 06:52:00,58.0,56.0,30.05,WSW,248,3.0,4.0,93,0.00,,,0.00,,2013-09-30 13:52:00,
2013-09-30 07:11:00,58.0,56.0,30.05,SW,225,3.0,4.0,93,0.00,,,0.00,,2013-09-30 14:11:00,
2013-09-30 07:22:00,58.0,56.0,30.05,SW,225,2.0,4.0,93,0.00,,,0.00,,2013-09-30 14:22:00,
2013-09-30 07:42:00,58.0,56.0,30.05,SW,225,2.0,2.0,93,0.00,,,0.00,,2013-09-30 14:42:00,
2013-09-30 07:52:00,58.0,56.0,30.05,SW,225,7.0,7.0,93,0.00,,,0.00,,2013-09-30 14:52:00,
2013-09-30 08:11:00,58.0,56.0,30.05,SW,225,5.0,6.0,93,0.00,,,0.00,,2013-09-30 15:11:00,
2013-09-30 08:22:00,58.0,56.0,30.08,WSW,248,3.0,5.0,93,0.00,,,0.00,,2013-09-30 15:22:00,
2013-09-30 08:45:00,58.0,56.0,30.05,SW,225,3.0,4.0,93,0.00,,,0.00,,2013-09-30 15:45:00,
2013-09-30 08:54:00,59.0,57.0,30.05,SW,225,4.0,4.0,93,0.00,,,0.00,,2013-09-30 15:54:00,
2013-09-30 09:14:00,59.0,57.0,30.05,SW,225,4.0,4.0,92,0.00,,,0.00,,2013-09-30 16:14:00,
2013-09-30 09:24:00,59.0,57.0,30.05,SSW,203,6.0,6.0,92,0.00,,,0.00,,2013-09-30 16:24:00,
2013-09-30 09:44:00,60.0,58.0,30.08,SSW,203,4.0,4.0,92,0.00,,,0.00,,2013-09-30 16:44:00,
2013-09-30 09:53:00,59.0,56.0,30.08,SW,225,6.0,6.0,91,0.00,,,0.00,,2013-09-30 16:53:00,
2013-09-30 10:13:00,59.0,56.0,30.08,SW,225,4.0,6.0,91,0.00,,,0.00,,2013-09-30 17:13:00,
2013-09-30 10:22:00,60.0,57.0,30.08,SW,225,3.0,3.0,90,0.00,,,0.00,,2013-09-30 17:22:00,
2013-09-30 10:43:00,60.0,57.0,30.08,SW,225,7.0,7.0,90,0.00,,,0.00,,2013-09-30 17:43:00,
2013-09-30 10:53:00,60.0,57.0,30.08,SW,225,2.0,2.0,89,0.00,,,0.00,,2013-09-30 17:53:00,
2013-09-30 11:12:00,60.0,57.0,30.08,South,180,4.0,4.0,89,0.00,,,0.00,,2013-09-30 18:12:00,
2013-09-30 11:22:00,60.0,57.0,30.08,SSW,203,3.0,3.0,89,0.00,,,0.00,,2013-09-30 18:22:00,
2013-09-30 11:42:00,61.0,57.0,30.08,SSW,203,4.0,6.0,88,0.00,,,0.00,,2013-09-30 18:42:00,
2013-09-30 11:53:00,61.0,57.0,30.08,SW,225,6.0,6.0,88,0.00,,,0.00,,2013-09-30 18:53:00,
2013-09-30 12:12:00,61.0,57.0,30.08,West,270,4.0,4.0,87,0.00,,,0.00,,2013-09-30 19:12:00,
2013-09-30 12:22:00,61.0,57.0,30.08,WSW,248,2.0,4.0,87,0.00,,,0.00,,2013-09-30 19:22:00,
2013-09-30 12:42:00,61.0,57.0,30.08,SSW,203,2.0,2.0,86,0.00,,,0.00,,2013-09-30 19:42:00,
2013-09-30 12:53:00,62.0,57.0,30.08,WSW,248,4.0,6.0,85,0.00,,,0.00,,2013-09-30 19:53:00,
2013-09-30 13:12:00,61.0,57.0,30.08,SW,225,3.0,3.0,86,0.00,,,0.00,,2013-09-30 20:12:00,
2013-09-30 13:23:00,62.0,57.0,30.08,SSW,203,3.0,6.0,85,0.00,,,0.00,,2013-09-30 20:23:00,
2013-09-30 13:43:00,62.0,57.0,30.05,SSW,203,3.0,3.0,85,0.00,,,0.00,,2013-09-30 20:43:00,
2013-09-30 13:53:00,62.0,57.0,30.05,SW,225,2.0,4.0,85,0.00,,,0.00,,2013-09-30 20:53:00,
2013-09-30 14:11:00,62.0,57.0,30.05,SW,225,3.0,5.0,84,0.00,,,0.00,,2013-09-30 21:11:00,
2013-09-30 14:22:00,62.0,57.0,30.05,WSW,248,4.0,4.0,84,0.00,,,0.00,,2013-09-30 21:22:00,
2013-09-30 14:43:00,62.0,57.0,30.05,WNW,293,2.0,3.0,84,0.00,,,0.00,,2013-09-30 21:43:00,
2013-09-30 14:54:00,62.0,57.0,30.05,West,270,4.0,4.0,84,0.00,,,0.00,,2013-09-30 21:54:00,
2013-09-30 15:13:00,62.0,57.0,30.05,SSW,203,4.0,4.0,84,0.00,,,0.00,,2013-09-30 22:13:00,
2013-09-30 15:23:00,62.0,57.0,30.05,SW,225,3.0,4.0,85,0.00,,,0.00,,2013-09-30 22:23:00,
2013-09-30 15:43:00,62.0,57.0,30.05,SW,225,5.0,5.0,84,0.00,,,0.00,,2013-09-30 22:43:00,
2013-09-30 15:54:00,62.0,57.0,30.02,SSW,203,2.0,4.0,84,0.00,,,0.00,,2013-09-30 22:54:00,
2013-09-30 16:12:00,61.0,56.0,30.02,SW,225,8.0,8.0,84,0.00,,,0.00,,2013-09-30 23:12:00,
2013-09-30 16:23:00,62.0,57.0,30.02,SSW,203,6.0,6.0,84,0.00,,,0.00,,2013-09-30 23:23:00,
2013-09-30 16:42:00,61.0,56.0,30.02,SW,225,6.0,6.0,84,0.00,,,0.00,,2013-09-30 23:42:00,
2013-09-30 16:54:00,61.0,56.0,30.02,SSW,203,8.0,8.0,84,0.00,,,0.00,,2013-09-30 23:54:00,
2013-09-30 17:12:00,61.0,56.0,30.02,SW,225,6.0,7.0,85,0.00,,,0.00,,2013-10-01 00:12:00,
2013-09-30 17:22:00,61.0,56.0,30.02,West,270,3.0,3.0,85,0.00,,,0.00,,2013-10-01 00:22:00,
2013-09-30 17:43:00,61.0,56.0,30.02,WSW,248,3.0,5.0,85,0.00,,,0.00,,2013-10-01 00:43:00,
2013-09-30 17:52:00,61.0,56.0,30.02,SW,225,2.0,2.0,85,0.00,,,0.00,,2013-10-01 00:52:00,
2013-09-30 18:12:00,61.0,56.0,29.99,WSW,248,3.0,4.0,85,0.00,,,0.00,,2013-10-01 01:12:00,
2013-09-30 18:21:00,60.0,56.0,29.99,SW,225,3.0,3.0,86,0.00,,,0.00,,2013-10-01 01:21:00,
2013-09-30 18:42:00,60.0,56.0,29.99,WSW,248,4.0,4.0,87,0.00,,,0.00,,2013-10-01 01:42:00,
2013-09-30 18:52:00,59.0,56.0,29.99,SW,225,9.0,9.0,89,0.00,,,0.00,,2013-10-01 01:52:00,
2013-09-30 19:12:00,58.0,55.0,29.99,South,180,5.0,5.0,90,0.00,,,0.00,,2013-10-01 02:12:00,
2013-09-30 19:22:00,58.0,55.0,29.99,South,180,6.0,6.0,91,0.00,,,0.00,,2013-10-01 02:22:00,
2013-09-30 19:42:00,58.0,55.0,29.99,SW,225,5.0,6.0,91,0.00,,,0.00,,2013-10-01 02:42:00,
2013-09-30 19:52:00,57.0,54.0,29.99,West,270,4.0,4.0,90,0.00,,,0.00,,2013-10-01 02:52:00,
2013-09-30 20:12:00,57.0,54.0,29.99,West,270,4.0,9.0,91,0.00,,,0.00,,2013-10-01 03:12:00,
2013-09-30 20:22:00,57.0,55.0,29.99,WSW,248,3.0,6.0,92,0.00,,,0.00,,2013-10-01 03:22:00,
2013-09-30 20:44:00,57.0,54.0,29.99,WSW,248,7.0,7.0,91,0.00,,,0.00,,2013-10-01 03:44:00,
2013-09-30 20:55:00,57.0,54.0,29.99,West,270,6.0,9.0,91,0.00,,,0.00,,2013-10-01 03:55:00,
2013-09-30 21:14:00,57.0,54.0,29.99,SW,225,6.0,6.0,90,0.00,,,0.00,,2013-10-01 04:14:00,
2013-09-30 21:24:00,57.0,54.0,29.99,WSW,248,6.0,6.0,89,0.00,,,0.00,,2013-10-01 04:24:00,